• Em Portugal
  • Lista de países
  • Para 7 dias
  • Temperatura da água
  • Mapas de satélite
  • Mapa do tempo
  • Widgets de tempo
  • user-avatar
    Iniciar Sessão

    Previsão horária em Berat

    Hoje, 28 Maio, Segunda-feira

    Tempo Temperatura Precipitação Vento Pressão Humidade
    00:00 +21°C° 0 mm 1 m/s 746 mmHg 73%
    01:00 +21°C° 0 mm 1 m/s 746 mmHg 73%
    02:00 +21°C° 0 mm 1 m/s 746 mmHg 73%
    03:00 +21°C° 0 mm 1 m/s 746 mmHg 73%
    04:00 +20°C° 0 mm 1 m/s 745 mmHg 73%
    05:00 +22°C° 0 mm 1 m/s 746 mmHg 70%
    06:00 +24°C° 0 mm 1 m/s 746 mmHg 66%
    07:00 +25°C° 0 mm 1 m/s 746 mmHg 63%
    08:00 +27°C° 0 mm 1 m/s 746 mmHg 58%
    09:00 +28°C° 0 mm 1 m/s 746 mmHg 53%
    10:00 +30°C° 0 mm 1 m/s 746 mmHg 48%
    11:00 +30°C° 0 mm 2 m/s 746 mmHg 47%
    12:00 +30°C° 0 mm 2 m/s 746 mmHg 47%
    13:00 +31°C° 0 mm 3 m/s 746 mmHg 46%
    14:00 +30°C° 0,2 mm 3 m/s 745 mmHg 49%
    15:00 +30°C° 0,2 mm 3 m/s 745 mmHg 52%
    16:00 +29°C° 0,2 mm 3 m/s 745 mmHg 56%
    17:00 +27°C° 0,3 mm 2 m/s 745 mmHg 62%
    18:00 +25°C° 0,3 mm 2 m/s 745 mmHg 68%
    19:00 +24°C° 0,3 mm 1 m/s 745 mmHg 74%
    20:00 +23°C° 0,1 mm 1 m/s 745 mmHg 75%
    21:00 +23°C° 0,1 mm 1 m/s 745 mmHg 75%
    22:00 +22°C° 0,1 mm 1 m/s 746 mmHg 75%
    23:00 +22°C° 0 mm 1 m/s 746 mmHg 75%

    Amanhã, 29 Maio, Terça-feira

    Tempo Temperatura Precipitação Vento Pressão Humidade
    00:00 +22°C° 0 mm 1 m/s 745 mmHg 75%
    01:00 +21°C° 0 mm 1 m/s 745 mmHg 75%
    02:00 +21°C° 0 mm 1 m/s 745 mmHg 76%
    03:00 +21°C° 0 mm 1 m/s 745 mmHg 76%
    04:00 +20°C° 0 mm 1 m/s 745 mmHg 76%
    05:00 +22°C° 0 mm 1 m/s 745 mmHg 72%
    06:00 +24°C° 0 mm 1 m/s 745 mmHg 69%
    07:00 +25°C° 0 mm 1 m/s 745 mmHg 65%
    08:00 +27°C° 0 mm 1 m/s 745 mmHg 60%
    09:00 +28°C° 0 mm 1 m/s 745 mmHg 55%
    10:00 +30°C° 0 mm 1 m/s 745 mmHg 51%
    11:00 +30°C° 0,1 mm 2 m/s 745 mmHg 50%
    12:00 +30°C° 0,1 mm 2 m/s 745 mmHg 50%
    13:00 +31°C° 0,1 mm 3 m/s 744 mmHg 49%
    14:00 +30°C° 0,4 mm 3 m/s 744 mmHg 52%
    15:00 +29°C° 0,4 mm 3 m/s 744 mmHg 56%
    16:00 +29°C° 0,4 mm 2 m/s 743 mmHg 59%
    17:00 +27°C° 0,2 mm 2 m/s 743 mmHg 65%
    18:00 +26°C° 0,2 mm 1 m/s 743 mmHg 71%
    19:00 +24°C° 0,2 mm 1 m/s 743 mmHg 77%
    20:00 +23°C° 0 mm 1 m/s 743 mmHg 78%
    21:00 +23°C° 0 mm 1 m/s 743 mmHg 79%
    22:00 +22°C° 0 mm 1 m/s 744 mmHg 80%
    23:00 +22°C° 0 mm 1 m/s 744 mmHg 80%

    Depois de amanhã, 30 Maio, Quarta-feira

    Tempo Temperatura Precipitação Vento Pressão Humidade
    00:00 +22°C° 0 mm 1 m/s 744 mmHg 80%
    01:00 +21°C° 0 mm 1 m/s 743 mmHg 80%
    02:00 +21°C° 0 mm 1 m/s 743 mmHg 81%
    03:00 +21°C° 0 mm 1 m/s 743 mmHg 81%
    04:00 +21°C° 0 mm 1 m/s 743 mmHg 81%
    05:00 +22°C° 0 mm 1 m/s 743 mmHg 77%
    06:00 +24°C° 0 mm 1 m/s 743 mmHg 72%
    07:00 +25°C° 0 mm 1 m/s 743 mmHg 68%
    08:00 +27°C° 0,2 mm 1 m/s 743 mmHg 64%
    09:00 +28°C° 0,2 mm 1 m/s 743 mmHg 60%
    10:00 +29°C° 0,2 mm 2 m/s 743 mmHg 56%
    11:00 +29°C° 0,7 mm 2 m/s 743 mmHg 56%
    12:00 +30°C° 0,7 mm 3 m/s 743 mmHg 56%
    13:00 +30°C° 0,7 mm 3 m/s 743 mmHg 56%
    14:00 +29°C° 0,6 mm 3 m/s 743 mmHg 57%
    15:00 +29°C° 0,6 mm 3 m/s 743 mmHg 59%
    16:00 +28°C° 0,6 mm 2 m/s 743 mmHg 61%
    17:00 +27°C° 0,1 mm 2 m/s 743 mmHg 67%
    18:00 +25°C° 0,1 mm 2 m/s 743 mmHg 73%
    19:00 +24°C° 0,1 mm 1 m/s 743 mmHg 79%
    20:00 +23°C° 0,2 mm 1 m/s 743 mmHg 81%
    21:00 +22°C° 0,2 mm 1 m/s 743 mmHg 83%
    22:00 +21°C° 0,2 mm 1 m/s 743 mmHg 85%
    23:00 +21°C° 0 mm 1 m/s 743 mmHg 84%

    31 Maio, Quinta-feira

    Tempo Temperatura Precipitação Vento Pressão Humidade
    00:00 +21°C° 0 mm 1 m/s 743 mmHg 83%
    01:00 +20°C° 0 mm 1 m/s 742 mmHg 82%
    02:00 +20°C° 0 mm 1 m/s 742 mmHg 80%
    03:00 +20°C° 0 mm 1 m/s 742 mmHg 79%
    04:00 +20°C° 0 mm 1 m/s 742 mmHg 77%
    05:00 +21°C° 0 mm 1 m/s 742 mmHg 72%
    06:00 +23°C° 0 mm 1 m/s 742 mmHg 66%
    07:00 +25°C° 0 mm 1 m/s 743 mmHg 61%
    08:00 +26°C° 0 mm 1 m/s 743 mmHg 57%
    09:00 +28°C° 0 mm 2 m/s 743 mmHg 53%
    10:00 +29°C° 0 mm 2 m/s 743 mmHg 49%
    11:00 +29°C° 0 mm 3 m/s 743 mmHg 49%
    12:00 +30°C° 0 mm 3 m/s 742 mmHg 49%
    13:00 +30°C° 0 mm 4 m/s 742 mmHg 49%
    14:00 +30°C° 0 mm 3 m/s 742 mmHg 51%
    15:00 +29°C° 0 mm 3 m/s 742 mmHg 53%
    16:00 +29°C° 0 mm 3 m/s 742 mmHg 56%
    17:00 +27°C° 0 mm 2 m/s 742 mmHg 62%
    18:00 +25°C° 0 mm 2 m/s 742 mmHg 68%
    19:00 +23°C° 0 mm 1 m/s 742 mmHg 74%
    20:00 +23°C° 0 mm 1 m/s 742 mmHg 76%
    21:00 +22°C° 0 mm 1 m/s 742 mmHg 77%
    22:00 +21°C° 0 mm 1 m/s 742 mmHg 79%
    23:00 +21°C° 0 mm 1 m/s 742 mmHg 77%

    1 Junho, Sexta-feira

    Tempo Temperatura Precipitação Vento Pressão Humidade
    00:00 +21°C° 0 mm 1 m/s 742 mmHg 76%
    01:00 +20°C° 0 mm 1 m/s 742 mmHg 75%
    02:00 +20°C° 0 mm 1 m/s 742 mmHg 74%
    03:00 +20°C° 0 mm 1 m/s 742 mmHg 74%
    04:00 +20°C° 0 mm 1 m/s 742 mmHg 73%
    05:00 +21°C° 0 mm 1 m/s 742 mmHg 69%
    06:00 +23°C° 0 mm 1 m/s 742 mmHg 65%
    07:00 +25°C° 0 mm 1 m/s 742 mmHg 62%
    08:00 +26°C° 0 mm 2 m/s 742 mmHg 58%
    09:00 +27°C° 0 mm 2 m/s 742 mmHg 55%
    10:00 +29°C° 0 mm 3 m/s 742 mmHg 52%
    11:00 +29°C° 0 mm 3 m/s 742 mmHg 50%
    12:00 +30°C° 0 mm 4 m/s 742 mmHg 49%
    13:00 +30°C° 0 mm 4 m/s 741 mmHg 48%
    14:00 +30°C° 0 mm 4 m/s 741 mmHg 49%
    15:00 +29°C° 0 mm 4 m/s 741 mmHg 51%
    16:00 +29°C° 0 mm 3 m/s 741 mmHg 53%
    17:00 +27°C° 0 mm 3 m/s 741 mmHg 60%
    18:00 +25°C° 0 mm 2 m/s 741 mmHg 68%
    19:00 +23°C° 0 mm 2 m/s 741 mmHg 75%
    20:00 +22°C° 0 mm 1 m/s 742 mmHg 77%
    21:00 +22°C° 0 mm 1 m/s 742 mmHg 78%
    22:00 +21°C° 0 mm 1 m/s 742 mmHg 80%
    23:00 +21°C° 0 mm 1 m/s 742 mmHg 79%

    2 Junho, Sábado

    Tempo Temperatura Precipitação Vento Pressão Humidade
    00:00 +20°C° 0 mm 1 m/s 742 mmHg 77%
    01:00 +20°C° 0 mm 1 m/s 742 mmHg 76%
    02:00 +20°C° 0 mm 1 m/s 742 mmHg 76%
    03:00 +20°C° 0 mm 1 m/s 742 mmHg 76%
    04:00 +20°C° 0 mm 1 m/s 742 mmHg 75%
    05:00 +21°C° 0 mm 1 m/s 742 mmHg 72%
    06:00 +23°C° 0 mm 1 m/s 742 mmHg 68%
    07:00 +25°C° 0 mm 1 m/s 742 mmHg 64%
    08:00 +26°C° 0 mm 1 m/s 742 mmHg 60%
    09:00 +27°C° 0 mm 2 m/s 742 mmHg 56%
    10:00 +28°C° 0 mm 3 m/s 742 mmHg 53%
    11:00 +29°C° 0,1 mm 3 m/s 742 mmHg 53%
    12:00 +29°C° 0,1 mm 4 m/s 742 mmHg 53%
    13:00 +29°C° 0,1 mm 4 m/s 741 mmHg 52%
    14:00 +29°C° 0,3 mm 4 m/s 741 mmHg 55%
    15:00 +28°C° 0,3 mm 4 m/s 741 mmHg 57%
    16:00 +27°C° 0,3 mm 4 m/s 741 mmHg 60%
    17:00 +26°C° 0,1 mm 3 m/s 741 mmHg 66%
    18:00 +24°C° 0,1 mm 2 m/s 742 mmHg 73%
    19:00 +22°C° 0,1 mm 1 m/s 742 mmHg 80%
    20:00 +22°C° 0,1 mm 1 m/s 742 mmHg 82%
    21:00 +21°C° 0,1 mm 1 m/s 742 mmHg 84%
    22:00 +20°C° 0,1 mm 1 m/s 742 mmHg 86%
    23:00 +20°C° 0,1 mm 1 m/s 742 mmHg 86%
    Mostrar mais